Tracking 31027 objects as of 19-Jul-2025
HD Live streaming from Space Station
objects crossing your sky now

STARLINK-30979

Track STARLINK-30979 now!
10-day predictions
STARLINK-30979 is classified as:


NORAD ID: 58485
Int'l Code: 2023-186N
Perigee: 565.1 km
Apogee: 567.4 km
Inclination: 43.0 °
Period: 95.8 minutes
Semi major axis: 6937 km
RCS: Unknown
Launch date: December 3, 2023
Source: United States (US)
Launch site: AIR FORCE EASTERN TEST RANGE (AFETR)
Your satellite tracking list
STARLINK-5129
Track 1 satellite(s)




NASA's NSSDC Master Catalog

Two Line Element Set (TLE):
1 58485U 23186N   25199.50691474 -.00000351  00000-0 -10927-4 0  9996
2 58485  43.0027 259.9954 0001640 281.6028  78.4631 15.02535224 90613
Source of the keplerian elements: AFSPC